Погода в Тынде

Россия / Амурская область     55°09′16″N   124°43′45″E
темп.,
°C
ветер,
м/с
пор.,
м/с
влажн.,
%
обл.,
%
осадки,
мм/ч
давл.,
гПа
погр.,
м
9 марта, вт
вт900:00−20с229877 0.0 101220
03:00−19з119479 0.0 101420
06:00−19з119592 0.0 101720
09:00−14зсз2108351 0.0 1019400
12:00−8ссз59700 0.0 10201397
15:00−7зсз477416 0.0 10201301
18:00−11зюз238557 0.0 102130
21:00−16юз128629 0.0 102220
10 марта, ср
ср1000:00−17ююв119167 0.0 101920
03:00−16вюв119284 0.0 101720
06:00−14в1197100 0.1 101527
09:00−12всв0196100 1.4 1013112
12:00−9ссз2393100 1.4 1013448
15:00−6ссз4777100 1.9 10151070
18:00−10ссз3977100 0.1 1019293
21:00−15з128167 0.1 102420
11 марта, чт
чт1100:00−17з128196 0.0 102620
03:00−20сз128148 0.0 102820
06:00−22вюв018621 0.0 102820
09:00−18всв119060 0.0 102738
12:00−11з128685 0.0 1025367
15:00−7з258252 0.0 1024654
18:00−10зсз128750 0.0 102522
21:00−16з119025 0.0 102720
12 марта, пт
пт1200:00−17юз009663 0.0 102720
03:00−17в119982 0.0 102520
06:00−15в1198100 0.1 102222
09:00−12всв0098100 0.1 102059
12:00−6зюз2489100 0.0 1018459
15:00−4ююз2491100 0.1 1016389
18:00−4ююз2594100 0.0 1015215
21:00−7ю1296100 0.0 101431
13 марта, сб
сб1300:00−6вюв1197100 0.1 101154
03:00−7в1197100 0.4 100922
06:00−6с2497100 1.7 1009157
09:00−6сз009582 2.0 101163
12:00−3ююв12900 0.0 1010423
15:00−2ю249245 0.0 1008527
18:00−1ю3790100 0.0 1006638
21:00−5ююв1395100 0.1 100570